EW6420 Weather Reports


Display with metric or nautical units.
time (UTC)temp
F
wind
direction
speed
MPH
gust
MPH
rain 1hr
in
rain 24hr
in
rain mn
in
humidity
%
barometer
mb
20260507051506 55 25 0.0 0.0 0.00 0.00 0.00 76 1020.7
20260507050006 55 25 0.0 0.0 0.00 0.00 0.00 77 1020.6
20260507043004 55 25 0.0 0.0 0.00 0.00 0.00 77 1020.6
20260507041503 56 25 0.0 0.0 0.00 0.00 0.00 76 1020.6
20260507040004 56 25 0.0 0.0 0.00 0.00 0.00 75 1020.4
20260507034504 56 25 0.0 0.0 0.00 0.00 0.00 75 1020.3
20260507033003 57 25 0.0 0.0 0.00 0.00 0.00 74 1020.2
20260507031504 57 25 0.0 0.0 0.00 0.00 0.00 73 1020.1
20260507030007 57 25 0.0 0.0 0.00 0.00 0.00 73 1020.0
20260507024503 57 25 0.0 0.0 0.00 0.00 0.00 72 1019.9
20260507023004 58 25 0.0 0.0 0.00 0.00 0.00 73 1019.8
20260507021504 58 25 0.0 0.0 0.00 0.00 0.00 71 1019.8
20260507020005 58 25 0.0 0.0 0.00 0.00 0.00 71 1019.8
20260507014504 58 25 0.0 2.0 0.00 0.00 0.00 70 1019.8
20260507013005 59 25 0.0 2.0 0.00 0.00 0.00 70 1019.7
20260507011504 59 25 0.0 1.0 0.00 0.00 0.00 70 1019.7
20260507010003 59 25 0.0 2.0 0.00 0.00 0.00 70 1019.8
20260507004502 60 16 0.0 2.0 0.00 0.00 0.00 68 1019.8
20260507001505 61 67 0.0 2.0 0.00 0.00 0.00 68 1019.9
20260507000005 61 72 0.0 2.0 0.00 0.00 0.00 67 1019.8
20260506234503 61 83 0.0 0.0 0.00 0.00 0.00 68 1019.8
20260506231503 59 38 0.0 0.0 0.00 0.00 0.00 69 1019.8
20260506224504 59 104 0.0 0.0 0.00 0.00 0.00 70 1019.9
20260506223006 59 104 0.0 2.0 0.00 0.00 0.00 71 1020.0
20260506221504 58 104 0.0 2.0 0.00 0.00 0.00 72 1020.2
20260506220005 58 104 0.0 2.0 0.00 0.00 0.00 72 1020.1
20260506213002 57 104 0.0 0.0 0.00 0.00 0.00 75 1020.3
20260506211502 57 104 0.0 2.0 0.00 0.00 0.00 74 1020.3
20260506210005 57 106 0.0 2.0 0.00 0.00 0.00 75 1020.3
20260506204504 57 106 0.0 2.0 0.00 0.00 0.00 76 1020.2
20260506203005 57 117 0.0 2.0 0.00 0.00 0.00 77 1020.1
20260506201506 56 195 0.0 2.0 0.00 0.00 0.00 79 1020.0
20260506200005 56 195 0.0 2.0 0.00 0.00 0.00 80 1020.1
20260506193002 55 152 0.0 1.0 0.00 0.00 0.00 83 1020.0
20260506191503 55 153 0.0 2.0 0.00 0.00 0.00 83 1020.0
20260506184504 54 48 0.0 2.0 0.00 0.00 0.00 83 1020.1
20260506181503 54 58 0.0 2.0 0.00 0.00 0.00 84 1019.9
20260506180003 54 31 0.0 0.0 0.00 0.00 0.00 84 1019.9
20260506174502 54 31 0.0 1.0 0.00 0.00 0.00 85 1019.8
20260506173002 53 31 0.0 2.0 0.00 0.00 0.00 85 1019.9
20260506171502 53 79 0.0 2.0 0.00 0.00 0.00 85 1019.8
20260506164502 53 148 0.0 2.0 0.00 0.00 0.00 86 1019.5
20260506163002 53 148 0.0 2.0 0.00 0.00 0.00 87 1019.2
20260506161503 53 148 0.0 2.0 0.00 0.00 0.00 87 1019.5
20260506160003 52 127 0.0 0.0 0.00 0.00 0.00 88 1019.5
20260506154503 52 127 0.0 2.0 0.00 0.00 0.00 88 1019.3
20260506153002 52 127 0.0 2.0 0.00 0.00 0.00 88 1019.4
20260506151503 52 127 0.0 0.0 0.00 0.00 0.00 89 1019.5
20260506150005 52 127 0.0 1.0 0.00 0.00 0.00 89 1019.4
20260506144502 52 127 0.0 2.0 0.00 0.00 0.00 89 1019.2
20260506143003 52 106 0.0 0.0 0.00 0.00 0.00 89 1019.1
20260506141503 52 106 0.0 2.0 0.00 0.00 0.00 89 1019.0
20260506140005 52 92 0.0 2.0 0.00 0.00 0.00 88 1019.1
20260506134502 52 92 0.0 1.0 0.00 0.00 0.00 88 1019.1
20260506133004 52 92 0.0 2.0 0.00 0.00 0.00 87 1018.8
20260506131503 52 101 0.0 2.0 0.00 0.00 0.00 88 1018.5
20260506130005 52 101 0.0 0.0 0.00 0.00 0.00 89 1018.7
20260506124501 52 101 0.0 0.0 0.00 0.00 0.00 89 1018.4
20260506121502 52 101 0.0 0.0 0.00 0.00 0.00 90 1018.3
20260506120002 52 101 0.0 2.0 0.00 0.00 0.00 89 1018.1
20260506114501 52 95 0.0 2.0 0.00 0.00 0.00 89 1018.3
20260506113001 53 95 0.0 0.0 0.00 0.00 0.00 88 1018.3
20260506111503 53 95 0.0 0.0 0.00 0.00 0.00 87 1018.2
20260506110004 54 95 0.0 0.0 0.00 0.00 0.00 85 1018.2
20260506104503 54 95 0.0 0.0 0.00 0.00 0.00 84 1017.9
20260506103005 54 95 0.0 0.0 0.00 0.00 0.00 83 1017.8
20260506101503 54 95 0.0 1.0 0.00 0.00 0.00 83 1017.5
20260506100002 54 95 0.0 0.0 0.00 0.00 0.00 84 1017.3
20260506094501 54 95 0.0 0.0 0.00 0.00 0.00 84 1017.3
20260506091501 55 95 0.0 0.0 0.00 0.00 0.00 83 1017.2
20260506084501 55 95 0.0 0.0 0.00 0.00 0.00 83 1017.1
20260506083002 55 95 0.0 0.0 0.00 0.00 0.00 82 1017.0
20260506081501 55 95 0.0 0.0 0.00 0.00 0.00 82 1017.0
20260506071504 55 95 0.0 0.0 0.00 0.00 0.00 83 1016.6
20260506061504 56 95 0.0 0.0 0.00 0.00 0.00 83 1015.9